| time (UTC) | temp C | wind direction | speed KPH | gust KPH | rain 1hr cm | rain 24hr cm | rain mn cm | humidity % | barometer mb |
| 20260510175603 | 15 | 334 | 6.4 | 6.4 | 0.00 | 0.00 | 0.00 | 46 | 1019.9 |
| 20260510175058 | 15 | 327 | 6.4 | 6.4 | 0.00 | 0.00 | 0.00 | 50 | 1019.7 |
| 20260510174557 | 15 | 352 | 3.2 | 4.8 | 0.00 | 0.00 | 0.00 | 45 | 1020.0 |
| 20260510174054 | 15 | 38 | 6.4 | 9.7 | 0.00 | 0.00 | 0.00 | 52 | 1020.1 |
| 20260510173549 | 15 | 19 | 11.3 | 12.9 | 0.00 | 0.00 | 0.00 | 47 | 1020.1 |
| 20260510173046 | 15 | 15 | 3.2 | 3.2 | 0.00 | 0.00 | 0.00 | 45 | 1020.0 |
| 20260510172542 | 15 | 353 | 1.6 | 1.6 | 0.00 | 0.00 | 0.00 | 47 | 1020.1 |
| 20260510172038 | 14 | 39 | 1.6 | 3.2 | 0.00 | 0.00 | 0.00 | 52 | 1020.1 |
| 20260510171535 | 14 | 36 | 9.7 | 11.3 | 0.00 | 0.00 | 0.00 | 53 | 1020.1 |
| 20260510171032 | 15 | 24 | 8.0 | 9.7 | 0.00 | 0.00 | 0.00 | 55 | 1020.1 |
| 20260510170528 | 14 | 49 | 1.6 | 3.2 | 0.00 | 0.00 | 0.00 | 55 | 1020.4 |
| 20260510170025 | 14 | 8 | 8.0 | 9.7 | 0.00 | 0.00 | 0.00 | 54 | 1020.1 |
| 20260510165521 | 14 | 25 | 8.0 | 9.7 | 0.00 | 0.00 | 0.00 | 58 | 1020.4 |
| 20260510165017 | 14 | 317 | 1.6 | 1.6 | 0.00 | 0.00 | 0.00 | 57 | 1020.4 |
| 20260510164515 | 14 | 30 | 3.2 | 3.2 | 0.00 | 0.00 | 0.00 | 54 | 1020.3 |
| 20260510164010 | 14 | 48 | 4.8 | 4.8 | 0.00 | 0.00 | 0.00 | 56 | 1020.1 |
| 20260510163506 | 13 | 238 | 3.2 | 4.8 | 0.00 | 0.00 | 0.00 | 56 | 1020.1 |
| 20260510163001 | 13 | 0 | 3.2 | 6.4 | 0.00 | 0.00 | 0.00 | 51 | 1020.1 |
| 20260510162458 | 13 | 342 | 6.4 | 6.4 | 0.00 | 0.00 | 0.00 | 56 | 1020.3 |
| 20260510161954 | 13 | 15 | 6.4 | 9.7 | 0.00 | 0.00 | 0.00 | 60 | 1020.0 |
| 20260510161450 | 13 | 48 | 6.4 | 6.4 | 0.00 | 0.00 | 0.00 | 57 | 1020.1 |
| 20260510160948 | 13 | 358 | 3.2 | 4.8 | 0.00 | 0.00 | 0.00 | 56 | 1020.1 |
| 20260510160445 | 13 | 19 | 8.0 | 11.3 | 0.00 | 0.00 | 0.00 | 61 | 1020.1 |
| 20260510155943 | 13 | 45 | 4.8 | 4.8 | 0.00 | 0.00 | 0.00 | 56 | 1020.3 |
| 20260510155441 | 13 | 347 | 8.0 | 9.7 | 0.00 | 0.00 | 0.00 | 61 | 1019.9 |
| 20260510154937 | 12 | 51 | 3.2 | 3.2 | 0.00 | 0.00 | 0.00 | 56 | 1019.9 |
| 20260510154433 | 12 | 7 | 8.0 | 11.3 | 0.00 | 0.00 | 0.00 | 60 | 1020.0 |
| 20260510153931 | 12 | 40 | 4.8 | 4.8 | 0.00 | 0.00 | 0.00 | 61 | 1020.0 |
| 20260510153428 | 12 | 41 | 9.7 | 11.3 | 0.00 | 0.00 | 0.00 | 62 | 1019.9 |
| 20260510152925 | 12 | 44 | 8.0 | 9.7 | 0.00 | 0.00 | 0.00 | 65 | 1019.7 |
| 20260510152423 | 12 | 3 | 6.4 | 11.3 | 0.00 | 0.00 | 0.00 | 65 | 1019.7 |
| 20260510151919 | 12 | 42 | 6.4 | 6.4 | 0.00 | 0.00 | 0.00 | 67 | 1019.6 |
| 20260510151416 | 12 | 22 | 8.0 | 11.3 | 0.00 | 0.00 | 0.00 | 66 | 1019.7 |
| 20260510150912 | 12 | 46 | 9.7 | 11.3 | 0.00 | 0.00 | 0.00 | 65 | 1019.7 |
| 20260510150408 | 11 | 31 | 6.4 | 6.4 | 0.00 | 0.00 | 0.00 | 63 | 1019.5 |
| 20260510145904 | 11 | 49 | 8.0 | 9.7 | 0.00 | 0.00 | 0.00 | 64 | 1019.4 |
| 20260510145401 | 11 | 40 | 8.0 | 11.3 | 0.00 | 0.00 | 0.00 | 66 | 1019.5 |
| 20260510144858 | 11 | 48 | 6.4 | 6.4 | 0.00 | 0.00 | 0.00 | 71 | 1019.3 |
| 20260510144355 | 11 | 22 | 11.3 | 14.5 | 0.00 | 0.00 | 0.00 | 67 | 1019.2 |
| 20260510143855 | 11 | 30 | 6.4 | 6.4 | 0.00 | 0.00 | 0.00 | 69 | 1018.9 |
| 20260510143351 | 11 | 60 | 1.6 | 3.2 | 0.00 | 0.00 | 0.00 | 70 | 1018.8 |
| 20260510142848 | 11 | 43 | 8.0 | 11.3 | 0.00 | 0.00 | 0.00 | 65 | 1019.0 |
| 20260510142344 | 11 | 31 | 8.0 | 9.7 | 0.00 | 0.00 | 0.00 | 65 | 1019.0 |
| 20260510141842 | 11 | 36 | 4.8 | 4.8 | 0.00 | 0.00 | 0.00 | 73 | 1018.9 |
| 20260510141339 | 10 | 29 | 4.8 | 6.4 | 0.00 | 0.00 | 0.00 | 74 | 1019.0 |
| 20260510140836 | 10 | 20 | 6.4 | 9.7 | 0.00 | 0.00 | 0.00 | 76 | 1018.9 |
| 20260510140332 | 10 | 21 | 9.7 | 11.3 | 0.00 | 0.00 | 0.00 | 74 | 1018.7 |
| 20260510135831 | 10 | 31 | 6.4 | 11.3 | 0.00 | 0.00 | 0.00 | 72 | 1018.9 |
| 20260510135327 | 10 | 37 | 9.7 | 11.3 | 0.00 | 0.00 | 0.00 | 76 | 1018.8 |
| 20260510134825 | 10 | 38 | 9.7 | 11.3 | 0.00 | 0.00 | 0.00 | 77 | 1018.8 |
| 20260510134322 | 10 | 48 | 4.8 | 4.8 | 0.00 | 0.00 | 0.00 | 77 | 1019.0 |
| 20260510133817 | 10 | 28 | 6.4 | 6.4 | 0.00 | 0.00 | 0.00 | 80 | 1018.8 |
| 20260510133314 | 10 | 323 | 6.4 | 9.7 | 0.00 | 0.00 | 0.00 | 80 | 1018.9 |
| 20260510132809 | 10 | 344 | 9.7 | 14.5 | 0.00 | 0.00 | 0.00 | 80 | 1018.7 |
| 20260510132308 | 9 | 35 | 4.8 | 4.8 | 0.00 | 0.00 | 0.00 | 83 | 1018.6 |
| 20260510131804 | 9 | 31 | 3.2 | 4.8 | 0.00 | 0.00 | 0.00 | 84 | 1018.4 |
| 20260510131302 | 9 | 37 | 4.8 | 4.8 | 0.00 | 0.00 | 0.00 | 85 | 1018.6 |
| 20260510130758 | 9 | 38 | 4.8 | 6.4 | 0.00 | 0.00 | 0.00 | 83 | 1018.4 |
| 20260510130255 | 9 | 21 | 9.7 | 11.3 | 0.00 | 0.00 | 0.00 | 84 | 1018.5 |
| 20260510125752 | 9 | 23 | 4.8 | 6.4 | 0.00 | 0.00 | 0.00 | 86 | 1018.4 |
| 20260510125247 | 9 | 41 | 6.4 | 9.7 | 0.00 | 0.00 | 0.00 | 85 | 1018.3 |
| 20260510124744 | 8 | 14 | 4.8 | 4.8 | 0.00 | 0.00 | 0.00 | 90 | 1018.1 |
| 20260510124242 | 8 | 9 | 6.4 | 9.7 | 0.00 | 0.00 | 0.00 | 90 | 1017.9 |
| 20260510123737 | 8 | 16 | 8.0 | 11.3 | 0.00 | 0.00 | 0.00 | 90 | 1017.8 |
| 20260510123234 | 8 | 48 | 3.2 | 4.8 | 0.00 | 0.00 | 0.00 | 91 | 1017.8 |
| 20260510122730 | 8 | 20 | 4.8 | 4.8 | 0.00 | 0.00 | 0.00 | 91 | 1017.6 |
| 20260510122226 | 8 | 41 | 6.4 | 6.4 | 0.00 | 0.00 | 0.00 | 89 | 1017.4 |
| 20260510121722 | 8 | 15 | 6.4 | 6.4 | 0.00 | 0.00 | 0.00 | 91 | 1017.7 |
| 20260510121220 | 8 | 34 | 6.4 | 6.4 | 0.00 | 0.00 | 0.00 | 92 | 1017.2 |
| 20260510120717 | 8 | 32 | 9.7 | 12.9 | 0.00 | 0.00 | 0.00 | 91 | 1017.3 |
| 20260510120214 | 8 | 50 | 6.4 | 6.4 | 0.00 | 0.00 | 0.00 | 92 | 1017.0 |
| 20260510115709 | 8 | 40 | 3.2 | 4.8 | 0.00 | 0.00 | 0.00 | 91 | 1017.2 |
| 20260510115208 | 8 | 39 | 3.2 | 3.2 | 0.00 | 0.00 | 0.00 | 91 | 1017.0 |
| 20260510114703 | 8 | 24 | 3.2 | 4.8 | 0.00 | 0.00 | 0.00 | 91 | 1016.6 |
| 20260510114200 | 8 | 47 | 3.2 | 3.2 | 0.00 | 0.00 | 0.00 | 91 | 1017.0 |
| 20260510113655 | 8 | 345 | 3.2 | 3.2 | 0.00 | 0.00 | 0.00 | 92 | 1017.0 |
| 20260510113152 | 8 | 50 | 3.2 | 3.2 | 0.00 | 0.00 | 0.00 | 91 | 1016.6 |
| 20260510112649 | 8 | 13 | 4.8 | 4.8 | 0.00 | 0.00 | 0.00 | 89 | 1016.5 |
| 20260510112146 | 8 | 21 | 3.2 | 3.2 | 0.00 | 0.00 | 0.00 | 90 | 1016.1 |
| 20260510111642 | 8 | 19 | 4.8 | 4.8 | 0.00 | 0.00 | 0.00 | 90 | 1016.1 |
| 20260510111138 | 8 | 23 | 3.2 | 4.8 | 0.00 | 0.00 | 0.00 | 90 | 1015.9 |
| 20260510110633 | 8 | 16 | 3.2 | 3.2 | 0.00 | 0.00 | 0.00 | 91 | 1016.0 |
| 20260510110131 | 8 | 15 | 1.6 | 1.6 | 0.00 | 0.00 | 0.00 | 89 | 1016.2 |
| 20260510105626 | 8 | 335 | 1.6 | 3.2 | 0.00 | 0.00 | 0.00 | 89 | 1015.9 |
| 20260510105121 | 8 | 17 | 0.0 | 1.6 | 0.00 | 0.00 | 0.00 | 89 | 1015.7 |
| 20260510104618 | 8 | 5 | 3.2 | 4.8 | 0.00 | 0.00 | 0.00 | 90 | 1015.4 |
| 20260510104114 | 8 | 13 | 3.2 | 3.2 | 0.00 | 0.00 | 0.00 | 91 | 1015.5 |
| 20260510103612 | 7 | 106 | 3.2 | 3.2 | 0.00 | 0.00 | 0.00 | 92 | 1015.3 |
| 20260510103107 | 7 | 107 | 0.0 | 1.6 | 0.00 | 0.00 | 0.00 | 95 | 1015.5 |
| 20260510102603 | 7 | 107 | 0.0 | 0.0 | 0.00 | 0.00 | 0.00 | 99 | 1015.2 |
| 20260510102059 | 6 | 107 | 0.0 | 0.0 | 0.00 | 0.00 | 0.00 | 99 | 1015.0 |
| 20260510101557 | 6 | 107 | 0.0 | 0.0 | 0.00 | 0.00 | 0.00 | 99 | 1014.9 |
| 20260510101055 | 6 | 107 | 0.0 | 0.0 | 0.00 | 0.00 | 0.00 | 99 | 1014.9 |
| 20260510100551 | 6 | 107 | 0.0 | 0.0 | 0.00 | 0.00 | 0.00 | 99 | 1014.8 |
| 20260510100049 | 6 | 107 | 0.0 | 0.0 | 0.00 | 0.00 | 0.00 | 99 | 1014.8 |
| 20260510095544 | 6 | 107 | 0.0 | 0.0 | 0.00 | 0.00 | 0.00 | 99 | 1014.7 |
| 20260510095044 | 6 | 107 | 0.0 | 0.0 | 0.00 | 0.00 | 0.00 | 99 | 1014.8 |
| 20260510094538 | 6 | 8 | 0.0 | 0.0 | 0.00 | 0.00 | 0.00 | 99 | 1014.8 |
| 20260510094034 | 6 | 8 | 0.0 | 0.0 | 0.00 | 0.00 | 0.00 | 97 | 1014.6 |
| 20260510093530 | 6 | 8 | 0.0 | 0.0 | 0.00 | 0.00 | 0.00 | 96 | 1014.7 |
| 20260510093027 | 6 | 8 | 0.0 | 0.0 | 0.00 | 0.00 | 0.00 | 94 | 1014.7 |
| 20260510092524 | 7 | 8 | 0.0 | 0.0 | 0.00 | 0.00 | 0.00 | 93 | 1014.6 |
| 20260510092023 | 7 | 8 | 0.0 | 0.0 | 0.00 | 0.00 | 0.00 | 92 | 1014.5 |
| 20260510091521 | 7 | 334 | 0.0 | 0.0 | 0.00 | 0.00 | 0.00 | 92 | 1014.4 |
| 20260510091016 | 7 | 334 | 0.0 | 0.0 | 0.00 | 0.00 | 0.00 | 91 | 1014.1 |
| 20260510090514 | 7 | 334 | 0.0 | 0.0 | 0.00 | 0.00 | 0.00 | 92 | 1014.4 |
| 20260510090010 | 7 | 334 | 0.0 | 1.6 | 0.00 | 0.00 | 0.00 | 93 | 1014.1 |
| 20260510085510 | 7 | 335 | 0.0 | 0.0 | 0.00 | 0.00 | 0.00 | 90 | 1014.1 |
| 20260510085006 | 8 | 337 | 0.0 | 0.0 | 0.00 | 0.00 | 0.00 | 89 | 1013.8 |
| 20260510084503 | 8 | 337 | 1.6 | 1.6 | 0.00 | 0.00 | 0.00 | 88 | 1013.8 |
| 20260510083959 | 8 | 346 | 0.0 | 1.6 | 0.00 | 0.00 | 0.00 | 87 | 1013.5 |
| 20260510083456 | 8 | 8 | 1.6 | 1.6 | 0.00 | 0.00 | 0.00 | 87 | 1013.4 |
| 20260510082951 | 8 | 8 | 1.6 | 1.6 | 0.00 | 0.00 | 0.00 | 86 | 1013.4 |
| 20260510082449 | 8 | 6 | 1.6 | 1.6 | 0.00 | 0.00 | 0.00 | 86 | 1013.3 |
| 20260510081949 | 8 | 5 | 1.6 | 1.6 | 0.00 | 0.00 | 0.00 | 86 | 1013.4 |
| 20260510081445 | 8 | 10 | 1.6 | 3.2 | 0.00 | 0.00 | 0.00 | 87 | 1013.4 |
| 20260510080941 | 8 | 24 | 1.6 | 3.2 | 0.00 | 0.00 | 0.00 | 87 | 1013.0 |
| 20260510080439 | 8 | 27 | 3.2 | 3.2 | 0.00 | 0.00 | 0.00 | 87 | 1013.0 |
| 20260510075937 | 9 | 21 | 4.8 | 4.8 | 0.00 | 0.00 | 0.00 | 85 | 1013.1 |
| 20260510075435 | 8 | 14 | 4.8 | 6.4 | 0.00 | 0.00 | 0.00 | 87 | 1013.2 |
| 20260510074931 | 9 | 22 | 4.8 | 4.8 | 0.00 | 0.00 | 0.00 | 87 | 1013.1 |
| 20260510074428 | 9 | 13 | 3.2 | 4.8 | 0.00 | 0.00 | 0.00 | 88 | 1013.1 |
| 20260510073925 | 9 | 18 | 4.8 | 4.8 | 0.00 | 0.00 | 0.00 | 85 | 1012.9 |
| 20260510073420 | 10 | 24 | 6.4 | 6.4 | 0.00 | 0.00 | 0.00 | 87 | 1012.8 |
| 20260510072917 | 10 | 29 | 4.8 | 4.8 | 0.00 | 0.00 | 0.00 | 86 | 1013.0 |
| 20260510072414 | 10 | 14 | 6.4 | 9.7 | 0.00 | 0.00 | 0.00 | 88 | 1012.9 |
| 20260510071909 | 10 | 10 | 8.0 | 9.7 | 0.00 | 0.00 | 0.00 | 88 | 1012.6 |
| 20260510071406 | 10 | 49 | 11.3 | 14.5 | 0.00 | 0.00 | 0.00 | 92 | 1012.8 |
| 20260510070904 | 11 | 10 | 6.4 | 6.4 | 0.00 | 0.00 | 0.00 | 93 | 1012.7 |
| 20260510070401 | 11 | 10 | 9.7 | 12.9 | 0.00 | 0.00 | 0.00 | 96 | 1012.5 |
| 20260510065856 | 11 | 16 | 8.0 | 12.9 | 0.00 | 0.00 | 0.00 | 96 | 1012.5 |
| 20260510065353 | 12 | 350 | 4.8 | 6.4 | 0.00 | 0.00 | 0.00 | 96 | 1012.3 |
| 20260510064850 | 12 | 335 | 3.2 | 3.2 | 0.00 | 0.00 | 0.00 | 96 | 1012.1 |
| 20260510064348 | 12 | 335 | 1.6 | 3.2 | 0.00 | 0.00 | 0.00 | 96 | 1012.2 |
| 20260510063843 | 12 | 359 | 3.2 | 4.8 | 0.00 | 0.00 | 0.00 | 95 | 1012.0 |
| 20260510063340 | 12 | 308 | 0.0 | 0.0 | 0.00 | 0.00 | 0.00 | 95 | 1012.0 |
| 20260510062837 | 12 | 0 | 3.2 | 3.2 | 0.00 | 0.00 | 0.00 | 95 | 1011.9 |
| 20260510062332 | 12 | 347 | 6.4 | 9.7 | 0.00 | 0.00 | 0.00 | 97 | 1011.7 |
| 20260510061828 | 12 | 264 | 0.0 | 0.0 | 0.00 | 0.00 | 0.00 | 97 | 1011.7 |
| 20260510061325 | 12 | 267 | 0.0 | 0.0 | 0.00 | 0.00 | 0.00 | 97 | 1011.8 |
| 20260510060821 | 12 | 275 | 1.6 | 1.6 | 0.00 | 0.00 | 0.00 | 98 | 1011.7 |
| 20260510060318 | 12 | 341 | 0.0 | 0.0 | 0.00 | 0.00 | 0.00 | 97 | 1011.6 |
| 20260510055815 | 12 | 250 | 3.2 | 6.4 | 0.00 | 0.00 | 0.00 | 98 | 1011.6 |
| 20260510055314 | 12 | 238 | 3.2 | 4.8 | 0.00 | 0.00 | 0.00 | 98 | 1011.4 |
| 20260510054813 | 12 | 11 | 0.0 | 1.6 | 0.00 | 0.00 | 0.00 | 99 | 1011.4 |
| 20260510054309 | 11 | 169 | 0.0 | 0.0 | 0.00 | 0.00 | 0.00 | 99 | 1011.4 |
| 20260510053810 | 12 | 169 | 0.0 | 0.0 | 0.00 | 0.00 | 0.00 | 99 | 1011.4 |
| 20260510053305 | 12 | 169 | 0.0 | 0.0 | 0.00 | 0.00 | 0.00 | 99 | 1011.4 |
| 20260510052801 | 12 | 169 | 1.6 | 1.6 | 0.00 | 0.00 | 0.00 | 98 | 1011.4 |
| 20260510052257 | 12 | 169 | 1.6 | 1.6 | 0.00 | 0.00 | 0.00 | 99 | 1011.2 |
| 20260510051754 | 12 | 171 | 3.2 | 4.8 | 0.00 | 0.00 | 0.00 | 99 | 1011.2 |
| 20260510051250 | 11 | 173 | 3.2 | 4.8 | 0.00 | 0.00 | 0.00 | 99 | 1011.3 |
| 20260510050748 | 11 | 174 | 0.0 | 0.0 | 0.00 | 0.00 | 0.00 | 99 | 1011.0 |
| 20260510050244 | 11 | 173 | 1.6 | 1.6 | 0.00 | 0.00 | 0.00 | 99 | 1011.0 |
| 20260510045742 | 11 | 173 | 1.6 | 1.6 | 0.00 | 0.00 | 0.00 | 99 | 1011.1 |
| 20260510045238 | 11 | 174 | 4.8 | 4.8 | 0.00 | 0.00 | 0.00 | 99 | 1011.0 |
| 20260510044735 | 10 | 189 | 3.2 | 4.8 | 0.00 | 0.00 | 0.00 | 99 | 1010.9 |
| 20260510044233 | 11 | 168 | 4.8 | 4.8 | 0.00 | 0.00 | 0.00 | 99 | 1011.2 |
| 20260510043727 | 11 | 175 | 4.8 | 4.8 | 0.00 | 0.00 | 0.00 | 99 | 1010.9 |
| 20260510043225 | 10 | 178 | 4.8 | 4.8 | 0.00 | 0.00 | 0.00 | 99 | 1011.0 |
| 20260510042722 | 10 | 265 | 0.0 | 0.0 | 0.00 | 0.00 | 0.00 | 99 | 1010.5 |
| 20260510042218 | 10 | 265 | 0.0 | 0.0 | 0.00 | 0.00 | 0.00 | 99 | 1010.5 |
| 20260510041715 | 10 | 265 | 1.6 | 1.6 | 0.00 | 0.00 | 0.00 | 99 | 1010.6 |
| 20260510041212 | 10 | 265 | 1.6 | 1.6 | 0.00 | 0.00 | 0.00 | 99 | 1010.5 |
| 20260510040709 | 10 | 265 | 0.0 | 0.0 | 0.00 | 0.00 | 0.00 | 99 | 1010.5 |
| 20260510040206 | 11 | 265 | 0.0 | 0.0 | 0.00 | 0.00 | 0.00 | 99 | 1010.6 |
| 20260510035701 | 11 | 265 | 0.0 | 0.0 | 0.00 | 1.09 | 1.09 | 99 | 1010.4 |
| 20260510035157 | 11 | 265 | 0.0 | 0.0 | 0.00 | 1.09 | 1.09 | 99 | 1010.5 |
| 20260510034653 | 11 | 265 | 0.0 | 0.0 | 0.00 | 1.09 | 1.09 | 99 | 1010.4 |
| 20260510034151 | 11 | 265 | 0.0 | 0.0 | 0.00 | 1.09 | 1.09 | 99 | 1010.4 |
| 20260510033647 | 11 | 265 | 1.6 | 1.6 | 0.00 | 1.09 | 1.09 | 99 | 1010.4 |
| 20260510033145 | 11 | 265 | 0.0 | 0.0 | 0.00 | 1.09 | 1.09 | 99 | 1010.7 |
| 20260510032641 | 11 | 265 | 3.2 | 3.2 | 0.00 | 1.09 | 1.09 | 99 | 1010.6 |
| 20260510032136 | 11 | 265 | 3.2 | 3.2 | 0.00 | 1.09 | 1.09 | 99 | 1010.6 |
| 20260510031632 | 11 | 265 | 3.2 | 3.2 | 0.00 | 1.09 | 1.09 | 99 | 1010.4 |
| 20260510031129 | 11 | 265 | 3.2 | 3.2 | 0.00 | 1.09 | 1.09 | 99 | 1010.6 |
| 20260510030628 | 12 | 265 | 4.8 | 4.8 | 0.00 | 1.09 | 1.09 | 99 | 1010.5 |
| 20260510030126 | 12 | 265 | 3.2 | 3.2 | 0.00 | 1.09 | 1.09 | 99 | 1010.4 |
| 20260510025623 | 12 | 265 | 3.2 | 3.2 | 0.00 | 1.09 | 1.09 | 99 | 1010.6 |
| 20260510025121 | 12 | 265 | 0.0 | 0.0 | 0.00 | 1.09 | 1.09 | 99 | 1010.6 |
| 20260510024617 | 12 | 265 | 1.6 | 1.6 | 0.18 | 1.09 | 1.09 | 99 | 1011.0 |
| 20260510024114 | 12 | 265 | 0.0 | 0.0 | 0.18 | 1.09 | 1.09 | 99 | 1010.3 |
| 20260510023610 | 12 | 265 | 0.0 | 0.0 | 0.00 | 1.07 | 1.07 | 99 | 1010.5 |
| 20260510023108 | 12 | 265 | 0.0 | 0.0 | 0.00 | 1.07 | 1.07 | 99 | 1010.5 |
| 20260510022607 | 12 | 265 | 3.2 | 3.2 | 0.00 | 1.07 | 1.07 | 99 | 1010.4 |
| 20260510022102 | 12 | 265 | 3.2 | 3.2 | 0.00 | 1.07 | 1.07 | 99 | 1010.9 |
| 20260510021558 | 12 | 265 | 4.8 | 4.8 | 0.00 | 1.07 | 1.07 | 99 | 1010.3 |
| 20260510021056 | 12 | 283 | 0.0 | 1.6 | 0.00 | 1.07 | 1.07 | 99 | 1010.0 |
| 20260510020555 | 12 | 283 | 0.0 | 0.0 | 0.00 | 1.07 | 1.07 | 99 | 1010.0 |
| 20260510020051 | 12 | 283 | 0.0 | 0.0 | 0.00 | 1.07 | 1.07 | 99 | 1010.2 |
| 20260510015548 | 12 | 283 | 3.2 | 3.2 | 0.00 | 1.07 | 1.07 | 99 | 1010.3 |
| 20260510015044 | 12 | 283 | 0.0 | 0.0 | 0.00 | 1.07 | 1.07 | 99 | 1010.0 |
| 20260510014540 | 12 | 283 | 1.6 | 1.6 | 0.00 | 1.07 | 1.07 | 99 | 1009.9 |
| 20260510014037 | 11 | 283 | 3.2 | 3.2 | 0.00 | 1.07 | 1.07 | 99 | 1009.7 |
| 20260510013532 | 11 | 283 | 1.6 | 3.2 | 0.00 | 1.07 | 1.07 | 99 | 1009.6 |
| 20260510013028 | 11 | 283 | 1.6 | 1.6 | 0.00 | 1.07 | 1.07 | 99 | 1009.6 |
| 20260510012522 | 12 | 283 | 1.6 | 1.6 | 0.00 | 1.07 | 1.07 | 99 | 1009.5 |
| 20260510012019 | 12 | 283 | 0.0 | 0.0 | 0.00 | 1.07 | 1.07 | 99 | 1009.4 |
| 20260510011518 | 12 | 283 | 0.0 | 0.0 | 0.00 | 1.07 | 1.07 | 99 | 1009.4 |
| 20260510011014 | 12 | 283 | 0.0 | 0.0 | 0.00 | 1.07 | 1.07 | 99 | 1009.3 |
| 20260510010511 | 12 | 283 | 1.6 | 1.6 | 0.00 | 1.07 | 1.07 | 99 | 1009.3 |
| 20260510010008 | 12 | 283 | 3.2 | 3.2 | 0.00 | 1.07 | 1.07 | 99 | 1009.1 |
| 20260510005504 | 12 | 283 | 1.6 | 1.6 | 0.00 | 1.07 | 1.07 | 99 | 1009.2 |
| 20260510005002 | 12 | 283 | 1.6 | 3.2 | 0.00 | 1.07 | 1.07 | 99 | 1009.2 |
| 20260510004459 | 12 | 283 | 3.2 | 3.2 | 0.00 | 1.07 | 1.07 | 99 | 1008.9 |
| 20260510003957 | 12 | 283 | 0.0 | 0.0 | 0.00 | 1.07 | 1.07 | 99 | 1009.1 |
| 20260510003453 | 12 | 283 | 1.6 | 1.6 | 0.00 | 1.07 | 1.07 | 99 | 1009.1 |
| 20260510002948 | 12 | 283 | 0.0 | 0.0 | 0.00 | 1.07 | 1.07 | 99 | 1009.2 |
| 20260510002444 | 12 | 283 | 0.0 | 0.0 | 0.13 | 1.07 | 1.07 | 99 | 1009.3 |
| 20260510001941 | 12 | 283 | 1.6 | 3.2 | 0.13 | 1.07 | 1.07 | 98 | 1009.5 |
| 20260510001438 | 12 | 283 | 0.0 | 1.6 | 0.00 | 1.04 | 1.04 | 98 | 1009.7 |
| 20260510000936 | 12 | 231 | 4.8 | 9.7 | 0.00 | 1.04 | 1.04 | 98 | 1009.5 |
| 20260510000433 | 12 | 44 | 0.0 | 1.6 | 0.00 | 1.04 | 1.04 | 99 | 1009.4 |
| 20260509235929 | 12 | 43 | 1.6 | 1.6 | 0.00 | 1.04 | 1.04 | 98 | 1009.2 |
| 20260509235426 | 12 | 326 | 3.2 | 4.8 | 0.30 | 1.04 | 1.04 | 98 | 1009.3 |
| 20260509234922 | 12 | 25 | 3.2 | 4.8 | 0.79 | 1.04 | 1.04 | 98 | 1009.5 |
| 20260509234419 | 12 | 268 | 4.8 | 4.8 | 0.97 | 0.99 | 0.99 | 97 | 1009.6 |
| 20260509233917 | 13 | 352 | 4.8 | 9.7 | 0.79 | 0.94 | 0.94 | 95 | 1009.6 |
| 20260509233414 | 13 | 14 | 12.9 | 17.7 | 0.30 | 0.84 | 0.84 | 91 | 1009.1 |
| 20260509232910 | 15 | 11 | 17.7 | 30.6 | 0.18 | 0.81 | 0.81 | 82 | 1009.2 |
| 20260509232408 | 17 | 33 | 6.4 | 11.3 | 0.00 | 0.79 | 0.79 | 76 | 1008.8 |
| 20260509231904 | 17 | 221 | 3.2 | 3.2 | 0.00 | 0.79 | 0.79 | 73 | 1007.9 |
| 20260509231401 | 17 | 236 | 8.0 | 9.7 | 0.00 | 0.79 | 0.79 | 73 | 1007.9 |
| 20260509230859 | 18 | 239 | 6.4 | 9.7 | 0.00 | 0.79 | 0.79 | 72 | 1007.8 |
| 20260509230355 | 20 | 225 | 4.8 | 4.8 | 0.00 | 0.79 | 0.79 | 64 | 1007.4 |
| 20260509225851 | 20 | 241 | 14.5 | 17.7 | 0.00 | 0.79 | 0.79 | 62 | 1007.2 |
| 20260509225348 | 20 | 220 | 12.9 | 16.1 | 0.00 | 0.79 | 0.79 | 61 | 1007.1 |
| 20260509224843 | 20 | 219 | 9.7 | 14.5 | 0.00 | 0.79 | 0.79 | 63 | 1007.1 |
| 20260509224340 | 20 | 201 | 4.8 | 4.8 | 0.00 | 0.79 | 0.79 | 62 | 1007.0 |
| 20260509223837 | 20 | 189 | 9.7 | 11.3 | 0.00 | 0.79 | 0.79 | 59 | 1007.0 |
| 20260509223333 | 20 | 190 | 20.9 | 33.8 | 0.00 | 0.79 | 0.79 | 58 | 1006.9 |
| 20260509222831 | 20 | 205 | 9.7 | 12.9 | 0.00 | 0.79 | 0.79 | 60 | 1007.1 |
| 20260509222326 | 20 | 233 | 16.1 | 20.9 | 0.00 | 0.79 | 0.79 | 59 | 1007.1 |
| 20260509221821 | 20 | 229 | 9.7 | 11.3 | 0.00 | 0.79 | 0.79 | 58 | 1007.1 |
| 20260509221319 | 20 | 165 | 14.5 | 16.1 | 0.00 | 0.79 | 0.79 | 58 | 1006.9 |
| 20260509220819 | 20 | 194 | 8.0 | 11.3 | 0.00 | 0.79 | 0.79 | 57 | 1006.9 |
| 20260509220315 | 21 | 181 | 17.7 | 22.5 | 0.00 | 0.79 | 0.79 | 59 | 1007.1 |
| 20260509215811 | 21 | 222 | 12.9 | 16.1 | 0.00 | 0.79 | 0.79 | 57 | 1007.0 |
| 20260509215308 | 21 | 152 | 17.7 | 24.1 | 0.00 | 0.79 | 0.79 | 57 | 1007.0 |
| 20260509214805 | 21 | 171 | 17.7 | 17.7 | 0.00 | 0.79 | 0.79 | 58 | 1007.0 |
| 20260509214302 | 21 | 162 | 19.3 | 22.5 | 0.00 | 0.79 | 0.79 | 59 | 1006.9 |
| 20260509213759 | 21 | 201 | 11.3 | 12.9 | 0.00 | 0.79 | 0.79 | 59 | 1007.0 |
| 20260509213255 | 21 | 236 | 6.4 | 9.7 | 0.00 | 0.79 | 0.79 | 58 | 1007.0 |
| 20260509212752 | 21 | 192 | 9.7 | 11.3 | 0.00 | 0.79 | 0.79 | 59 | 1006.9 |
| 20260509212249 | 20 | 171 | 16.1 | 16.1 | 0.00 | 0.79 | 0.79 | 60 | 1007.0 |
| 20260509211745 | 20 | 184 | 17.7 | 22.5 | 0.00 | 0.79 | 0.79 | 59 | 1007.1 |
| 20260509211242 | 21 | 193 | 17.7 | 17.7 | 0.00 | 0.79 | 0.79 | 59 | 1007.1 |
| 20260509210738 | 21 | 201 | 12.9 | 16.1 | 0.00 | 0.79 | 0.79 | 60 | 1007.4 |
| 20260509210236 | 21 | 199 | 22.5 | 27.4 | 0.00 | 0.79 | 0.79 | 58 | 1007.3 |
| 20260509205735 | 20 | 198 | 14.5 | 16.1 | 0.00 | 0.79 | 0.79 | 61 | 1007.4 |
| 20260509205230 | 21 | 183 | 24.1 | 27.4 | 0.00 | 0.79 | 0.79 | 61 | 1007.3 |
| 20260509204726 | 21 | 233 | 12.9 | 16.1 | 0.00 | 0.79 | 0.79 | 60 | 1007.3 |
| 20260509204223 | 20 | 193 | 14.5 | 14.5 | 0.00 | 0.79 | 0.79 | 60 | 1007.7 |
| 20260509203718 | 21 | 240 | 14.5 | 17.7 | 0.00 | 0.79 | 0.79 | 65 | 1007.9 |
| 20260509203217 | 20 | 188 | 11.3 | 17.7 | 0.00 | 0.79 | 0.79 | 64 | 1007.9 |
| 20260509202712 | 20 | 215 | 11.3 | 16.1 | 0.00 | 0.79 | 0.79 | 65 | 1008.1 |
| 20260509202208 | 20 | 188 | 12.9 | 16.1 | 0.00 | 0.79 | 0.79 | 62 | 1007.9 |
| 20260509201703 | 20 | 158 | 16.1 | 17.7 | 0.00 | 0.79 | 0.79 | 67 | 1007.9 |
| 20260509201200 | 21 | 188 | 14.5 | 16.1 | 0.00 | 0.79 | 0.79 | 64 | 1008.2 |
| 20260509200656 | 20 | 205 | 12.9 | 17.7 | 0.00 | 0.79 | 0.79 | 66 | 1008.0 |
| 20260509200151 | 20 | 180 | 12.9 | 16.1 | 0.00 | 0.79 | 0.79 | 68 | 1008.2 |
| 20260509195648 | 20 | 217 | 16.1 | 17.7 | 0.00 | 0.79 | 0.79 | 68 | 1008.4 |
| 20260509195143 | 20 | 189 | 20.9 | 24.1 | 0.00 | 0.79 | 0.79 | 65 | 1008.5 |
| 20260509194643 | 20 | 220 | 17.7 | 24.1 | 0.00 | 0.79 | 0.79 | 66 | 1008.4 |
| 20260509194140 | 20 | 195 | 16.1 | 20.9 | 0.00 | 0.79 | 0.79 | 68 | 1008.6 |
| 20260509193636 | 20 | 203 | 16.1 | 20.9 | 0.00 | 0.79 | 0.79 | 68 | 1008.3 |
| 20260509193131 | 20 | 189 | 17.7 | 17.7 | 0.00 | 0.79 | 0.79 | 68 | 1008.3 |
| 20260509192628 | 20 | 157 | 24.1 | 30.6 | 0.00 | 0.79 | 0.79 | 65 | 1008.5 |
| 20260509192124 | 20 | 168 | 14.5 | 20.9 | 0.00 | 0.79 | 0.79 | 70 | 1008.6 |
| 20260509191623 | 19 | 205 | 17.7 | 20.9 | 0.00 | 0.79 | 0.79 | 71 | 1008.8 |
| 20260509191121 | 20 | 197 | 9.7 | 11.3 | 0.00 | 0.79 | 0.79 | 66 | 1008.6 |
| 20260509190617 | 20 | 202 | 9.7 | 11.3 | 0.00 | 0.79 | 0.79 | 70 | 1008.7 |
| 20260509190115 | 20 | 236 | 11.3 | 16.1 | 0.00 | 0.79 | 0.79 | 65 | 1008.7 |
| 20260509185612 | 20 | 222 | 11.3 | 12.9 | 0.00 | 0.79 | 0.79 | 69 | 1009.0 |
| 20260509185108 | 19 | 176 | 19.3 | 27.4 | 0.00 | 0.79 | 0.79 | 71 | 1009.1 |
| 20260509184606 | 18 | 196 | 11.3 | 14.5 | 0.00 | 0.79 | 0.79 | 71 | 1009.0 |
| 20260509184103 | 18 | 249 | 9.7 | 11.3 | 0.00 | 0.79 | 0.79 | 70 | 1009.2 |
| 20260509183558 | 18 | 171 | 11.3 | 14.5 | 0.00 | 0.79 | 0.79 | 69 | 1008.9 |
| 20260509183054 | 18 | 198 | 11.3 | 12.9 | 0.00 | 0.79 | 0.79 | 70 | 1009.1 |
| 20260509182551 | 18 | 187 | 14.5 | 16.1 | 0.00 | 0.79 | 0.79 | 70 | 1009.0 |
| 20260509182047 | 18 | 202 | 17.7 | 22.5 | 0.00 | 0.79 | 0.79 | 70 | 1009.0 |
| 20260509181546 | 18 | 190 | 9.7 | 12.9 | 0.00 | 0.79 | 0.79 | 72 | 1008.9 |
| 20260509181042 | 18 | 153 | 19.3 | 24.1 | 0.00 | 0.79 | 0.79 | 69 | 1009.1 |
| 20260509180538 | 18 | 156 | 14.5 | 17.7 | 0.00 | 0.79 | 0.79 | 72 | 1009.1 |
| 20260509180036 | 18 | 203 | 8.0 | 11.3 | 0.00 | 0.79 | 0.79 | 73 | 1009.1 |